Monarch Pass, CO

12:16 AM MDT on July 27, 2017 (GMT -0600)
Monarch Pass

Weather History for KMYP - March, 2013

Change the Weather History Date:

Friday, March 8, 2013

  Actual Average (KALS) Record (KALS)
Temperature  
Mean Temperature 26 °F -  
Max Temperature 32 °F 49 °F 67 °F (1989)
Min Temperature 19 °F 15 °F -6 °F (1998)
Degree Days  
Heating Degree Days 40    
Moisture  
Dew Point 14 °F    
Average Humidity 64    
Maximum Humidity 100    
Minimum Humidity 44    
Precipitation  
Precipitation 0.00 in - - ()
Sea Level Pressure  
Sea Level Pressure 30.04 in    
Wind  
Wind Speed 21 mph (SSW)    
Max Wind Speed 33 mph    
Max Gust Speed 38 mph    
Averages and records for this station are not official NWS values.
T = Trace of Precipitation, MM = Missing Value Source: NWS Daily Summary

Daily Weather History Graph

Daily Weather History Graph

Search for Another Location

Airport or City:

Trip Planner

Search our weather history database for the weather conditions in past years. The results will help you decide how hot, cold, wet, or windy it might be!

Date:

Astronomy

Mar. 08, 2013 Rise Set
Actual Time 6:26 AM MST 6:05 PM MST
Civil Twilight 5:59 AM MST 6:31 PM MST
Nautical Twilight 5:29 AM MST 7:02 PM MST
Astronomical Twilight 4:58 AM MST 7:33 PM MST
Moon 4:10 AM MST (3/8) 3:05 PM MST (3/8)
Length of Visible Light 12h 32m
Length of Day
11h 39m
Waning Crescent, 11% of the Moon is Illuminated
Mar 8
Waning Crescent
Mar 11
New
Mar 19
First Quarter
Mar 27
Full
Apr 2
Last Quarter

Hourly Weather History & Observations

Time (MST) Temp. Windchill Dew Point Humidity Pressure Visibility Wind Dir Wind Speed Gust Speed Precip Events Conditions
12:14 AM 28.4 °F 14.4 °F 10.4 °F 47% 30.22 in - SSW 23.0 mph 29.9 mph N/A   Clear
12:33 AM 28.4 °F 14.1 °F 10.4 °F 47% 30.22 in - SSW 24.2 mph - N/A   Clear
12:53 AM 26.6 °F 11.4 °F 10.4 °F 51% 30.21 in - SW 25.3 mph - N/A   Clear
1:13 AM 28.4 °F 14.1 °F 10.4 °F 47% 30.21 in - SW 24.2 mph - N/A   Clear
1:34 AM 28.4 °F 13.8 °F 10.4 °F 47% 30.20 in - SW 25.3 mph - N/A   Clear
1:54 AM 26.6 °F 11.4 °F 10.4 °F 51% 30.20 in - SW 25.3 mph 32.2 mph N/A   Clear
2:13 AM 26.6 °F 11.7 °F 10.4 °F 51% 30.20 in - SW 24.2 mph - N/A   Clear
2:34 AM 26.6 °F 11.7 °F 10.4 °F 51% 30.18 in - SW 24.2 mph - N/A   Clear
2:53 AM 24.8 °F 10.3 °F 10.4 °F 54% 30.18 in - SSW 20.7 mph - N/A   Clear
3:13 AM 24.8 °F 11.1 °F 10.4 °F 54% 30.17 in - SSW 18.4 mph - N/A   Clear
3:33 AM 24.8 °F 10.7 °F 12.2 °F 59% 30.16 in - SSW 19.6 mph 26.5 mph N/A   Clear
3:53 AM 24.8 °F 10.3 °F 12.2 °F 59% 30.16 in - SW 20.7 mph 25.3 mph N/A   Clear
4:14 AM 23.0 °F 8.7 °F 10.4 °F 59% 30.15 in - SSW 18.4 mph - N/A   Clear
4:34 AM 24.8 °F 10.3 °F 10.4 °F 54% 30.16 in - SSW 20.7 mph - N/A   Clear
4:54 AM 24.8 °F 11.1 °F 10.4 °F 54% 30.16 in - SSW 18.4 mph - N/A   Clear
5:14 AM 24.8 °F 11.5 °F 10.4 °F 54% 30.16 in - SSW 17.3 mph - N/A   Clear
5:34 AM 24.8 °F 11.1 °F 8.6 °F 50% 30.15 in - SSW 18.4 mph - N/A   Clear
5:54 AM 23.0 °F 8.3 °F 8.6 °F 54% 30.15 in - SW 19.6 mph - N/A   Clear
6:14 AM 23.0 °F 9.2 °F 8.6 °F 54% 30.15 in - SSW 17.3 mph - N/A   Clear
6:34 AM 23.0 °F 8.0 °F 8.6 °F 54% 30.15 in - SSW 20.7 mph - N/A   Clear
6:53 AM 23.0 °F 8.3 °F 10.4 °F 59% 30.15 in - SW 19.6 mph 24.2 mph N/A   Clear
7:13 AM 23.0 °F 7.2 °F 10.4 °F 59% 30.14 in - SW 23.0 mph - N/A   Clear
7:33 AM 24.8 °F 9.6 °F 10.4 °F 54% 30.14 in - SW 23.0 mph - N/A   Clear
7:53 AM 24.8 °F 9.0 °F 10.4 °F 54% 30.14 in - SW 25.3 mph 32.2 mph N/A   Clear
8:13 AM 26.6 °F 11.1 °F 10.4 °F 51% 30.14 in - SW 26.5 mph 31.1 mph N/A   Clear
8:34 AM 26.6 °F 13.4 °F 10.4 °F 51% 30.13 in - SW 18.4 mph - N/A   Clear
8:54 AM 28.4 °F 16.2 °F 10.4 °F 47% 30.13 in - SSW 17.3 mph - N/A   Clear
9:19 AM 28.4 °F 14.1 °F 10.4 °F 47% 30.12 in - SSW 24.2 mph 28.8 mph N/A   Clear
9:39 AM 28.4 °F 16.2 °F 12.2 °F 51% 30.12 in - SSW 17.3 mph 23.0 mph N/A   Clear
9:59 AM 30.2 °F 20.2 °F 12.2 °F 47% 30.12 in - SSW 12.7 mph - N/A   Clear
10:19 AM 30.2 °F 18.9 °F 12.2 °F 47% 30.11 in - SW 16.1 mph 32.2 mph N/A   Scattered Clouds
10:39 AM 30.2 °F 20.8 °F 12.2 °F 47% 30.09 in - South 11.5 mph 23.0 mph N/A   Scattered Clouds
10:59 AM 30.2 °F 19.3 °F 12.2 °F 47% 30.09 in - South 15.0 mph 23.0 mph N/A   Clear
11:19 AM 30.2 °F 17.4 °F 12.2 °F 47% 30.08 in - South 20.7 mph 29.9 mph N/A   Clear
11:34 AM 30.2 °F 18.5 °F 14.0 °F 51% 30.08 in - South 17.3 mph 25.3 mph N/A   Scattered Clouds
11:55 AM 30.2 °F 19.8 °F 12.2 °F 47% 30.07 in - South 13.8 mph 21.9 mph N/A   Mostly Cloudy
12:14 PM 32.0 °F 20.5 °F 12.2 °F 44% 30.06 in - SSW 18.4 mph 27.6 mph N/A   Mostly Cloudy
12:39 PM 32.0 °F 20.1 °F 12.2 °F 44% 30.04 in - South 19.6 mph 29.9 mph N/A   Overcast
12:59 PM 30.2 °F 14.5 °F 12.2 °F 47% 30.02 in - SSW 33.4 mph 38.0 mph N/A   Overcast
1:19 PM 30.2 °F 17.8 °F 14.0 °F 51% 30.02 in - SSW 19.6 mph 32.2 mph N/A   Overcast
1:39 PM 28.4 °F 14.7 °F 14.0 °F 55% 30.01 in - South 21.9 mph 34.5 mph N/A   Overcast
1:59 PM 28.4 °F 15.4 °F 14.0 °F 55% 30.00 in - South 19.6 mph 34.5 mph N/A   Overcast
2:19 PM 28.4 °F 14.7 °F 14.0 °F 55% 29.99 in - South 21.9 mph 31.1 mph N/A   Overcast
2:39 PM 28.4 °F 14.7 °F 14.0 °F 55% 29.99 in - SSW 21.9 mph - N/A   Overcast
2:59 PM 28.4 °F 18.0 °F 14.0 °F 55% 29.99 in - SW 12.7 mph 20.7 mph N/A   Overcast
3:19 PM 28.4 °F 18.0 °F 14.0 °F 55% 29.99 in - SSW 12.7 mph 18.4 mph N/A   Overcast
3:39 PM 30.2 °F 16.8 °F 14.0 °F 51% 29.97 in - SSW 23.0 mph 28.8 mph N/A   Overcast
3:59 PM 28.4 °F 15.1 °F 14.0 °F 55% 29.95 in - SSW 20.7 mph 28.8 mph N/A   Overcast
4:19 PM 28.4 °F 16.6 °F 14.0 °F 55% 29.94 in - SW 16.1 mph - N/A   Overcast
4:39 PM 28.4 °F 15.1 °F 14.0 °F 55% 29.94 in - SSW 20.7 mph 29.9 mph N/A   Overcast
4:59 PM 28.4 °F 15.8 °F 14.0 °F 55% 29.94 in - SSW 18.4 mph 26.5 mph N/A   Overcast
5:14 PM 26.6 °F 12.7 °F 17.6 °F 69% 29.93 in - South 20.7 mph 26.5 mph N/A   Overcast
5:35 PM 23.0 °F 8.0 °F 21.2 °F 93% 29.94 in - South 20.7 mph 27.6 mph N/A   Overcast
5:54 PM 23.0 °F 8.0 °F 23.0 °F 100% 29.93 in - South 20.7 mph 25.3 mph N/A   Overcast
6:14 PM 23.0 °F 8.7 °F 21.2 °F 93% 29.94 in - SSW 18.4 mph 24.2 mph N/A   Unknown
6:34 PM 23.0 °F 8.0 °F 21.2 °F 93% 29.93 in - SSW 20.7 mph 24.2 mph N/A   Unknown
6:53 PM 23.0 °F 11.1 °F 21.2 °F 93% 29.92 in - SSW 12.7 mph - N/A   Overcast
7:14 PM 23.0 °F 12.4 °F 21.2 °F 93% 29.92 in - SSW 10.4 mph - N/A   Unknown
7:33 PM 21.2 °F 10.9 °F 19.4 °F 93% 29.92 in - SSW 9.2 mph - N/A   Unknown
7:59 PM 21.2 °F 11.7 °F 19.4 °F 93% 29.91 in - SSW 8.1 mph - N/A   Unknown
8:19 PM 23.0 °F 12.4 °F 21.2 °F 93% 29.91 in - South 10.4 mph - N/A   Unknown
8:39 PM 23.0 °F 6.6 °F 21.2 °F 93% 29.89 in - SW 25.3 mph 29.9 mph N/A   Overcast
8:55 PM 21.2 °F 5.6 °F 19.4 °F 93% 29.89 in - SW 20.7 mph 26.5 mph N/A   Overcast
9:19 PM 21.2 °F 7.8 °F 19.4 °F 93% 29.89 in - SSW 15.0 mph - N/A   Overcast
9:34 PM 21.2 °F 7.8 °F 19.4 °F 93% 29.88 in - SW 15.0 mph - N/A   Unknown
9:53 PM 21.2 °F 6.0 °F 19.4 °F 93% 29.88 in - SW 19.6 mph - N/A   Unknown
10:19 PM 21.2 °F - 19.4 °F 93% 29.86 in - North - - N/A   Unknown
10:39 PM 19.4 °F 2.5 °F 17.6 °F 93% 29.84 in - WSW 23.0 mph - N/A   Unknown
10:59 PM 19.4 °F 1.4 °F 17.6 °F 93% 29.83 in - WSW 26.5 mph - N/A   Unknown
11:19 PM 19.4 °F 2.1 °F 17.6 °F 93% 29.82 in - WSW 24.2 mph - N/A   Unknown
11:36 PM 19.4 °F 2.5 °F 17.6 °F 93% 29.82 in - WSW 23.0 mph - N/A   Mostly Cloudy
11:53 PM 19.4 °F - 17.6 °F 93% 29.83 in - North - - N/A   Overcast